Shirley, NY

8:13 AM EDT on October 23, 2017 (GMT -0400)
Brookhaven

Weather History for KHWV - June, 2013

Change the Weather History Date:

Thursday, June 13, 2013

  Actual Average (KISP) Record (KISP)
Temperature  
Mean Temperature 58 °F -  
Max Temperature 64 °F 73 °F 93 °F (2017)
Min Temperature 53 °F 56 °F 49 °F (1976)
Degree Days  
Heating Degree Days 6    
Growing Degree Days 8 (Base 50)    
Moisture  
Dew Point 56 °F    
Average Humidity 87    
Maximum Humidity 97    
Minimum Humidity 72    
Precipitation  
Precipitation 0.55 in - - ()
Sea Level Pressure  
Sea Level Pressure 29.67 in    
Wind  
Wind Speed 4 mph (ESE)    
Max Wind Speed 13 mph    
Max Gust Speed 25 mph    
Visibility 8 miles    
Events Rain    
Averages and records for this station are not official NWS values.
T = Trace of Precipitation, MM = Missing Value Source: NWS Daily Summary

Daily Weather History Graph

Daily Weather History Graph

Search for Another Location

Airport or City:

Trip Planner

Search our weather history database for the weather conditions in past years. The results will help you decide how hot, cold, wet, or windy it might be!

Date:

Astronomy

Jun. 13, 2013 Rise Set
Actual Time 5:19 AM EDT 8:24 PM EDT
Civil Twilight 4:45 AM EDT 8:57 PM EDT
Nautical Twilight 4:03 AM EDT 9:40 PM EDT
Astronomical Twilight 3:13 AM EDT 10:30 PM EDT
Moon 9:54 AM EDT (6/13) 11:27 PM EDT (6/13)
Length of Visible Light 16h 11m
Length of Day
15h 04m
Waxing Crescent, 21% of the Moon is Illuminated
Jun 13
Waxing Crescent
Jun 16
First Quarter
Jun 23
Full
Jun 30
Last Quarter
Jul 8
New

Hourly Weather History & Observations

Time (EDT) Temp. Dew Point Humidity Pressure Visibility Wind Dir Wind Speed Gust Speed Precip Events Conditions
12:56 AM 55.9 °F 52.0 °F 87% 29.83 in 10.0 mi Calm Calm - N/A   Clear
1:56 AM 55.0 °F 52.0 °F 89% 29.83 in 10.0 mi Calm Calm - N/A   Clear
2:56 AM 54.0 °F 52.0 °F 93% 29.83 in 10.0 mi Calm Calm - N/A   Clear
3:56 AM 53.1 °F 51.1 °F 93% 29.83 in 10.0 mi Calm Calm - N/A   Clear
4:56 AM 53.1 °F 51.1 °F 93% 29.83 in 9.0 mi Calm Calm - N/A   Partly Cloudy
5:56 AM 55.9 °F 55.0 °F 97% 29.82 in 10.0 mi Calm Calm - N/A   Overcast
6:56 AM 60.1 °F 57.0 °F 90% 29.82 in 10.0 mi Calm Calm - N/A   Overcast
7:56 AM 63.0 °F 57.0 °F 81% 29.79 in 10.0 mi ESE 4.6 mph - N/A   Mostly Cloudy
8:56 AM 63.0 °F 55.0 °F 75% 29.79 in 10.0 mi ESE 3.5 mph - 0.00 in Rain Light Rain
9:56 AM 64.0 °F 55.9 °F 75% 29.77 in 10.0 mi Variable 3.5 mph - 0.00 in   Overcast
10:56 AM 63.0 °F 54.0 °F 72% 29.75 in 10.0 mi SE 8.1 mph - 0.00 in Rain Light Rain
11:56 AM 61.0 °F 57.0 °F 87% 29.72 in 7.0 mi ESE 6.9 mph - 0.07 in Rain Light Rain
12:17 PM 60.8 °F 57.2 °F 88% 29.72 in 2.0 mi SE 9.2 mph - 0.10 in Rain Heavy Rain
12:38 PM 60.8 °F 57.2 °F 88% 29.72 in 4.0 mi SE 9.2 mph 18.4 mph 0.18 in Rain Rain
12:56 PM 61.0 °F 57.9 °F 90% 29.72 in 8.0 mi SE 9.2 mph 18.4 mph 0.19 in Rain Light Rain
1:56 PM 64.0 °F 59.0 °F 84% 29.68 in 10.0 mi ESE 9.2 mph - 0.00 in   Scattered Clouds
2:56 PM 62.1 °F 55.9 °F 80% 29.66 in 10.0 mi ESE 10.4 mph 20.7 mph N/A   Overcast
3:56 PM 62.1 °F 55.9 °F 80% 29.62 in 10.0 mi SE 9.2 mph 18.4 mph N/A   Overcast
4:21 PM 62.6 °F 57.2 °F 82% 29.60 in 9.0 mi ESE 8.1 mph 20.7 mph N/A   Overcast
4:56 PM 62.1 °F 57.0 °F 84% 29.59 in 10.0 mi SE 10.4 mph 21.9 mph N/A   Overcast
5:56 PM 62.1 °F 57.0 °F 84% 29.55 in 10.0 mi ESE 12.7 mph 25.3 mph N/A   Overcast
6:05 PM 60.8 °F 57.2 °F 88% 29.54 in 10.0 mi ESE 11.5 mph 25.3 mph N/A   Overcast
6:56 PM 60.1 °F 57.0 °F 90% 29.54 in 5.0 mi ESE 11.5 mph 20.7 mph N/A   Overcast
7:56 PM 60.1 °F 57.0 °F 90% 29.53 in 5.0 mi East 8.1 mph - N/A   Overcast
8:56 PM 59.0 °F 57.0 °F 93% 29.52 in 2.5 mi East 9.2 mph 20.7 mph 0.08 in Rain Heavy Rain
9:11 PM 59.0 °F 57.2 °F 94% 29.51 in 3.0 mi Variable 5.8 mph 17.3 mph 0.06 in Rain Rain
9:56 PM 57.9 °F 55.9 °F 93% 29.51 in 7.0 mi Variable 6.9 mph - 0.13 in Rain Light Rain
10:56 PM 57.0 °F 55.0 °F 93% 29.49 in 3.0 mi ENE 8.1 mph - 0.04 in Rain Light Rain
11:42 PM 57.2 °F 55.4 °F 94% 29.49 in 2.5 mi NE 8.1 mph 25.3 mph 0.03 in Rain Light Rain
11:56 PM 55.9 °F 54.0 °F 93% 29.49 in 2.5 mi NNE 8.1 mph 18.4 mph 0.04 in Rain Light Rain